Hot Springs, VA

2:40 AM EST on December 11, 2016 (GMT -0500)
Ingalls

Weather History for KHSP - February, 2014

Change the Weather History Date:

Saturday, February 22, 2014

  Actual Average Record
Temperature  
Mean Temperature 40 °F -  
Max Temperature 48 °F 37 °F 50 °F (1997)
Min Temperature 32 °F 22 °F 1 °F (1999)
Degree Days  
Heating Degree Days 25    
Moisture  
Dew Point 15 °F    
Average Humidity 38    
Maximum Humidity 52    
Minimum Humidity 27    
Precipitation  
Precipitation 0.00 in - - ()
Sea Level Pressure  
Sea Level Pressure 30.08 in    
Wind  
Wind Speed 15 mph (WSW)    
Max Wind Speed 21 mph    
Max Gust Speed 32 mph    
Visibility 10 miles    
Events      
Averages and records for this station are not official NWS values.
T = Trace of Precipitation, MM = Missing Value Source: NWS Daily Summary

Daily Weather History Graph

Daily Weather History Graph

Search for Another Location

Airport or City:

Trip Planner

Search our weather history database for the weather conditions in past years. The results will help you decide how hot, cold, wet, or windy it might be!

Date:

Astronomy

Feb. 22, 2014 Rise Set
Actual Time 7:00 AM EST 6:05 PM EST
Civil Twilight 6:33 AM EST 6:32 PM EST
Nautical Twilight 6:03 AM EST 7:02 PM EST
Astronomical Twilight 5:32 AM EST 7:33 PM EST
Moon 12:51 AM EST (2/22) 11:17 AM EST (2/22)
Length of Visible Light 11h 58m
Length of Day
11h 05m
Waning Gibbous, 50% of the Moon is Illuminated
Feb 22
Waning Gibbous
Feb 22
Last Quarter
Mar 1
New
Mar 8
First Quarter
Mar 16
Full

Hourly Weather History & Observations

Time (EST) Temp. Windchill Dew Point Humidity Pressure Visibility Wind Dir Wind Speed Gust Speed Precip Events Conditions
12:35 AM 33.8 °F 23.5 °F 17.6 °F 52% 29.97 in 10.0 mi WNW 16.1 mph 32.2 mph N/A   Clear
12:36 AM 33.8 °F 23.2 °F 17.6 °F 52% 29.97 in 10.0 mi WNW 17.3 mph 32.2 mph N/A   Clear
1:15 AM 33.8 °F 22.8 °F 15.8 °F 48% 29.99 in 10.0 mi West 18.4 mph 27.6 mph N/A   Clear
1:35 AM 33.8 °F 23.9 °F 17.6 °F 52% 30.00 in 10.0 mi West 15.0 mph 23.0 mph N/A   Clear
2:15 AM 33.8 °F 25.3 °F 15.8 °F 48% 30.02 in 10.0 mi West 11.5 mph 18.4 mph N/A   Clear
2:55 AM 33.8 °F 25.8 °F 15.8 °F 48% 30.03 in 10.0 mi West 10.4 mph 16.1 mph N/A   Unknown
3:15 AM 33.8 °F 25.3 °F 15.8 °F 48% 30.03 in 10.0 mi West 11.5 mph 18.4 mph N/A   Clear
3:35 AM 32.0 °F 22.5 °F 15.8 °F 51% 30.03 in 10.0 mi West 12.7 mph 18.4 mph N/A   Clear
3:55 AM 33.8 °F 24.3 °F 14.0 °F 44% 30.02 in 10.0 mi West 13.8 mph 17.3 mph N/A   Clear
4:15 AM 33.8 °F 23.2 °F 12.2 °F 41% 30.03 in 10.0 mi West 17.3 mph - N/A   Clear
4:35 AM 32.0 °F 21.2 °F 14.0 °F 48% 30.03 in 10.0 mi West 16.1 mph 21.9 mph N/A   Clear
4:55 AM 32.0 °F 21.2 °F 14.0 °F 48% 30.04 in 10.0 mi West 16.1 mph 21.9 mph N/A   Clear
5:35 AM 32.0 °F 21.2 °F 14.0 °F 48% 30.05 in 10.0 mi West 16.1 mph 20.7 mph N/A   Clear
5:55 AM 32.0 °F 19.8 °F 14.0 °F 48% 30.06 in 10.0 mi West 20.7 mph 26.5 mph N/A   Clear
6:15 AM 32.0 °F 20.5 °F 12.2 °F 44% 30.06 in 10.0 mi West 18.4 mph 26.5 mph N/A   Clear
6:35 AM 32.0 °F 20.5 °F 14.0 °F 48% 30.06 in 10.0 mi West 18.4 mph 24.2 mph N/A   Clear
6:55 AM 33.8 °F 22.8 °F 12.2 °F 41% 30.06 in 10.0 mi West 18.4 mph 27.6 mph N/A   Clear
7:15 AM 32.0 °F 20.8 °F 12.2 °F 44% 30.07 in 10.0 mi West 17.3 mph 23.0 mph N/A   Clear
7:35 AM 32.0 °F 20.8 °F 12.2 °F 44% 30.08 in 10.0 mi West 17.3 mph - N/A   Clear
7:56 AM 32.0 °F 21.6 °F 12.2 °F 44% 30.08 in 10.0 mi West 15.0 mph - N/A   Clear
8:15 AM 32.0 °F 20.5 °F 12.2 °F 44% 30.09 in 10.0 mi West 18.4 mph 23.0 mph N/A   Clear
8:35 AM 33.8 °F 23.5 °F 14.0 °F 44% 30.09 in 10.0 mi West 16.1 mph - N/A   Clear
8:55 AM 35.6 °F 26.2 °F 14.0 °F 41% 30.10 in 10.0 mi West 15.0 mph 24.2 mph N/A   Clear
9:15 AM 35.6 °F 24.5 °F 12.2 °F 38% 30.10 in 10.0 mi West 20.7 mph 25.3 mph N/A   Clear
9:35 AM 35.6 °F 25.2 °F 14.0 °F 41% 30.12 in 10.0 mi West 18.4 mph 26.5 mph N/A   Clear
9:55 AM 35.6 °F 25.5 °F 15.8 °F 44% 30.12 in 10.0 mi West 17.3 mph 24.2 mph N/A   Clear
10:15 AM 37.4 °F 27.5 °F 15.8 °F 41% 30.12 in 10.0 mi West 18.4 mph 27.6 mph N/A   Clear
10:35 AM 39.2 °F 30.2 °F 15.8 °F 39% 30.12 in 10.0 mi West 17.3 mph 26.5 mph N/A   Clear
10:55 AM 39.2 °F 29.6 °F 15.8 °F 39% 30.13 in 10.0 mi West 19.6 mph 26.5 mph N/A   Clear
11:15 AM 41.0 °F 31.9 °F 15.8 °F 36% 30.12 in 10.0 mi WNW 19.6 mph 26.5 mph N/A   Clear
11:35 AM 42.8 °F 34.3 °F 15.8 °F 34% 30.13 in 10.0 mi West 19.6 mph 25.3 mph N/A   Clear
11:55 AM 42.8 °F 35.4 °F 17.6 °F 36% 30.13 in 10.0 mi West 15.0 mph 24.2 mph N/A   Clear
12:15 PM 44.6 °F 36.6 °F 17.6 °F 34% 30.12 in 10.0 mi WNW 19.6 mph 25.3 mph N/A   Clear
12:35 PM 44.6 °F 39.7 °F 17.6 °F 34% 30.12 in 10.0 mi West 9.2 mph 23.0 mph N/A   Clear
12:55 PM 46.4 °F 41.1 °F 17.6 °F 32% 30.11 in 10.0 mi West 11.5 mph 20.7 mph N/A   Clear
1:15 PM 46.4 °F 39.5 °F 17.6 °F 32% 30.10 in 10.0 mi West 17.3 mph 26.5 mph N/A   Clear
1:35 PM 46.4 °F 40.1 °F 17.6 °F 32% 30.10 in 10.0 mi West 15.0 mph 27.6 mph N/A   Clear
1:55 PM 46.4 °F 41.1 °F 17.6 °F 32% 30.09 in 10.0 mi West 11.5 mph 24.2 mph N/A   Clear
2:15 PM 46.4 °F 41.9 °F 17.6 °F 32% 30.09 in 10.0 mi WNW 9.2 mph 21.9 mph N/A   Clear
2:35 PM 48.2 °F - 17.6 °F 30% 30.08 in 10.0 mi West 12.7 mph 18.4 mph N/A   Clear
2:55 PM 48.2 °F - 15.8 °F 27% 30.08 in 7.0 mi WNW 15.0 mph 20.7 mph N/A   Clear
3:15 PM 48.2 °F - 15.8 °F 27% 30.08 in 10.0 mi WNW 12.7 mph 20.7 mph N/A   Clear
3:35 PM 48.2 °F - 17.6 °F 30% 30.08 in 10.0 mi West 10.4 mph 15.0 mph N/A   Clear
3:55 PM 48.2 °F - 15.8 °F 27% 30.08 in 10.0 mi West 9.2 mph 19.6 mph N/A   Clear
4:15 PM 48.2 °F - 15.8 °F 27% 30.08 in 10.0 mi West 9.2 mph 19.6 mph N/A   Clear
4:35 PM 48.2 °F - 15.8 °F 27% 30.08 in 10.0 mi WSW 6.9 mph 18.4 mph N/A   Clear
4:55 PM 48.2 °F - 15.8 °F 27% 30.08 in 10.0 mi WSW 5.8 mph - N/A   Clear
5:15 PM 46.4 °F 41.5 °F 15.8 °F 29% 30.08 in 10.0 mi WSW 10.4 mph - N/A   Clear
5:35 PM 46.4 °F 43.5 °F 15.8 °F 29% 30.08 in 10.0 mi WSW 5.8 mph 9.2 mph N/A   Clear
6:15 PM 44.6 °F 40.7 °F 15.8 °F 31% 30.08 in 10.0 mi SSW 6.9 mph - N/A   Clear
6:56 PM 44.6 °F 40.2 °F 14.0 °F 29% 30.09 in 10.0 mi SW 8.1 mph - N/A   Clear
7:15 PM 42.8 °F 38.0 °F 14.0 °F 31% 30.09 in 10.0 mi SW 8.1 mph - N/A   Clear
7:16 PM 42.8 °F 37.5 °F 14.0 °F 31% 30.09 in 10.0 mi SW 9.2 mph - N/A   Clear
8:16 PM 44.6 °F 40.7 °F 15.8 °F 31% 30.09 in 10.0 mi SSW 6.9 mph - N/A   Clear
8:35 PM 44.6 °F 39.2 °F 15.8 °F 31% 30.09 in 10.0 mi SSW 10.4 mph - N/A   Clear
8:36 PM 44.6 °F 39.7 °F 15.8 °F 31% 30.09 in 10.0 mi SSW 9.2 mph - N/A   Clear
9:16 PM 44.6 °F 39.7 °F 15.8 °F 31% 30.09 in 10.0 mi South 9.2 mph - N/A   Clear
9:35 PM 42.8 °F 38.0 °F 15.8 °F 34% 30.09 in 10.0 mi SSW 8.1 mph - N/A   Clear
9:36 PM 42.8 °F 38.0 °F 15.8 °F 34% 30.09 in 10.0 mi SSW 8.1 mph - N/A   Clear
9:55 PM 44.6 °F 39.2 °F 15.8 °F 31% 30.09 in 10.0 mi SSW 10.4 mph 16.1 mph N/A   Unknown
10:36 PM 44.6 °F 37.8 °F 15.8 °F 31% 30.09 in 10.0 mi SSW 15.0 mph 23.0 mph N/A   Clear
11:16 PM 44.6 °F 37.8 °F 17.6 °F 34% 30.07 in 10.0 mi SSW 15.0 mph 20.7 mph N/A   Clear
11:35 PM 42.8 °F 35.4 °F 17.6 °F 36% 30.07 in 10.0 mi SW 15.0 mph 23.0 mph N/A   Clear
11:36 PM 42.8 °F 35.4 °F 17.6 °F 36% 30.07 in 10.0 mi SW 15.0 mph 23.0 mph N/A   Clear